Weather History for Sallisaw, OK

Change the Weather History Date:

Thursday, October 25, 2012

  Actual Average Record
Temperature  
Mean Temperature 62 °F -  
Max Temperature 75 °F 70 °F 87 °F (1950)
Min Temperature 48 °F 47 °F 28 °F (2005)
Degree Days  
Heating Degree Days 4    
Growing Degree Days 12 (Base 50)    
Moisture  
Dew Point 54 °F    
Average Humidity 75    
Maximum Humidity 94    
Minimum Humidity 65    
Precipitation  
Precipitation 0.03 in - - ()
Sea Level Pressure  
Sea Level Pressure 29.95 in    
Wind  
Wind Speed 7 mph (NW)    
Max Wind Speed 18 mph    
Max Gust Speed 29 mph    
Visibility 10 miles    
Events Rain    
Averages and records for this station are not official NWS values.
T = Trace of Precipitation, MM = Missing Value Source: NWS Daily Summary

Daily Weather History Graph

Daily Weather History Graph

Search for Another Location

Airport:

Trip Planner

Search our weather history database for the weather conditions in past years. The results will help you decide how hot, cold, wet, or windy it might be!

Date:

Astronomy

Oct. 25, 2012 Rise Set
Actual Time 7:34 AM CDT 6:31 PM CDT
Civil Twilight 7:08 AM CDT 6:57 PM CDT
Nautical Twilight 6:38 AM CDT 7:26 PM CDT
Astronomical Twilight 6:09 AM CDT 7:56 PM CDT
Moon 4:11 PM CDT (10/25) 3:39 AM CDT (10/25)
Length of Visible Light 11h 48m
Length of Day
10h 56m
Waxing Gibbous, 84% of the Moon is Illuminated
Oct 25
Waxing Gibbous
Oct 29
Full
Nov 6
Last Quarter
Nov 13
New
Nov 20
First Quarter

Hourly Weather History & Observations

Time (CDT) Temp. Dew Point Humidity Pressure Visibility Wind Dir Wind Speed Gust Speed Precip Events Conditions
12:15 AM 69.8 °F 60.8 °F 73% 29.84 in 10.0 mi Calm Calm - N/A   Clear
12:35 AM 69.8 °F 60.8 °F 73% 29.83 in 10.0 mi ESE 3.5 mph - N/A   Clear
12:55 AM 69.8 °F 60.8 °F 73% 29.82 in 10.0 mi East 4.6 mph - N/A   Clear
1:15 AM 69.8 °F 60.8 °F 73% 29.82 in 10.0 mi SE 4.6 mph - N/A   Clear
1:35 AM 71.6 °F 62.6 °F 73% 29.81 in 10.0 mi SE 5.8 mph - N/A   Clear
1:55 AM 71.6 °F 62.6 °F 73% 29.81 in 10.0 mi SE 4.6 mph - N/A   Clear
2:35 AM 69.8 °F 60.8 °F 73% 29.82 in 10.0 mi ESE 4.6 mph - N/A   Overcast
2:55 AM 69.8 °F 62.6 °F 78% 29.83 in 10.0 mi Calm Calm - N/A   Overcast
3:15 AM 69.8 °F 62.6 °F 78% 29.83 in 10.0 mi East 3.5 mph - N/A   Overcast
3:35 AM 68.0 °F 62.6 °F 83% 29.83 in 10.0 mi ESE 4.6 mph - N/A   Mostly Cloudy
3:55 AM 68.0 °F 60.8 °F 78% 29.84 in 10.0 mi Calm Calm - N/A   Scattered Clouds
4:15 AM 66.2 °F 60.8 °F 83% 29.84 in 10.0 mi Calm Calm - N/A   Scattered Clouds
4:35 AM 69.8 °F 62.6 °F 78% 29.84 in 10.0 mi South 8.1 mph - N/A   Mostly Cloudy
4:55 AM 71.6 °F 62.6 °F 73% 29.84 in 10.0 mi South 8.1 mph - N/A   Mostly Cloudy
5:15 AM 71.6 °F 62.6 °F 73% 29.84 in 10.0 mi South 10.4 mph - N/A   Scattered Clouds
5:35 AM 71.6 °F 62.6 °F 73% 29.84 in 10.0 mi South 8.1 mph - N/A   Mostly Cloudy
5:55 AM 71.6 °F 62.6 °F 73% 29.84 in 10.0 mi South 10.4 mph - N/A   Mostly Cloudy
6:15 AM 71.6 °F 62.6 °F 73% 29.84 in 10.0 mi South 8.1 mph - N/A   Scattered Clouds
6:35 AM 71.6 °F 62.6 °F 73% 29.85 in 10.0 mi South 8.1 mph - N/A   Mostly Cloudy
6:55 AM 71.6 °F 62.6 °F 73% 29.85 in 10.0 mi South 9.2 mph - N/A   Overcast
7:15 AM 71.6 °F 62.6 °F 73% 29.85 in 10.0 mi South 11.5 mph - N/A   Overcast
7:35 AM 71.6 °F 62.6 °F 73% 29.85 in 10.0 mi South 8.1 mph - N/A   Overcast
7:55 AM 71.6 °F 62.6 °F 73% 29.86 in 10.0 mi South 6.9 mph - N/A   Mostly Cloudy
8:15 AM 71.6 °F 62.6 °F 73% 29.85 in 10.0 mi SSE 5.8 mph - N/A   Scattered Clouds
8:55 AM 73.4 °F 64.4 °F 73% 29.86 in 10.0 mi South 5.8 mph - N/A   Clear
9:15 AM 73.4 °F 64.4 °F 73% 29.86 in 10.0 mi South 8.1 mph - N/A   Clear
9:35 AM 75.2 °F 64.4 °F 69% 29.87 in 10.0 mi South 9.2 mph - N/A   Mostly Cloudy
9:55 AM 75.2 °F 64.4 °F 69% 29.87 in 10.0 mi South 10.4 mph 19.6 mph N/A   Mostly Cloudy
10:15 AM 73.4 °F 62.6 °F 69% 29.88 in 10.0 mi SSW 11.5 mph - N/A   Overcast
10:55 AM 73.4 °F 62.6 °F 69% 29.89 in 10.0 mi SW 10.4 mph - N/A   Overcast
11:15 AM 73.4 °F 62.6 °F 69% 29.89 in 10.0 mi SW 9.2 mph - N/A   Overcast
11:35 AM 75.2 °F 62.6 °F 65% 29.89 in 10.0 mi SW 10.4 mph - N/A   Mostly Cloudy
11:55 AM 73.4 °F 62.6 °F 69% 29.89 in 10.0 mi SW 10.4 mph - N/A   Overcast
12:15 PM 73.4 °F 62.6 °F 69% 29.89 in 10.0 mi SW 12.7 mph 19.6 mph N/A   Overcast
12:35 PM 73.4 °F 62.6 °F 69% 29.88 in 10.0 mi SW 10.4 mph - N/A   Overcast
1:15 PM 64.4 °F 59.0 °F 83% 29.91 in 7.0 mi NW 18.4 mph 27.6 mph N/A Rain Light Rain
1:35 PM 59.0 °F 55.4 °F 88% 29.93 in 10.0 mi NW 17.3 mph 28.8 mph N/A Rain Rain
1:55 PM 55.4 °F 53.6 °F 94% 29.95 in 7.0 mi NNW 16.1 mph 19.6 mph 0.02 in   Heavy Drizzle
2:15 PM 55.4 °F 51.8 °F 88% 29.96 in 7.0 mi NW 13.8 mph 20.7 mph 0.01 in Rain Light Rain
2:35 PM 53.6 °F 51.8 °F 94% 29.97 in 10.0 mi NNW 12.7 mph 19.6 mph 0.01 in   Overcast
2:55 PM 53.6 °F 50.0 °F 88% 29.98 in 10.0 mi NNW 10.4 mph 21.9 mph 0.01 in   Overcast
3:15 PM 53.6 °F 46.4 °F 77% 29.99 in 10.0 mi NNW 15.0 mph 24.2 mph N/A Rain Rain
3:35 PM 51.8 °F 46.4 °F 82% 30.00 in 10.0 mi NW 15.0 mph 20.7 mph N/A   Drizzle
3:55 PM 51.8 °F 48.2 °F 88% 30.01 in 10.0 mi NNW 11.5 mph 16.1 mph N/A   Overcast
4:15 PM 51.8 °F 46.4 °F 82% 30.02 in 10.0 mi NNW 17.3 mph 21.9 mph N/A   Overcast
4:35 PM 51.8 °F 44.6 °F 76% 30.03 in 10.0 mi North 13.8 mph - N/A   Overcast
4:55 PM 51.8 °F 44.6 °F 76% 30.04 in 10.0 mi NNW 16.1 mph 20.7 mph N/A   Overcast
5:15 PM 51.8 °F 44.6 °F 76% 30.05 in 10.0 mi North 13.8 mph 18.4 mph N/A   Overcast
5:35 PM 51.8 °F 44.6 °F 76% 30.05 in 10.0 mi North 10.4 mph 17.3 mph N/A   Overcast
5:55 PM 51.8 °F 42.8 °F 71% 30.06 in 10.0 mi North 12.7 mph 17.3 mph N/A   Overcast
6:15 PM 50.0 °F 42.8 °F 76% 30.07 in 10.0 mi North 13.8 mph 19.6 mph N/A   Overcast
6:35 PM 50.0 °F 42.8 °F 76% 30.08 in 10.0 mi NNW 13.8 mph 18.4 mph N/A   Overcast
6:55 PM 50.0 °F 42.8 °F 76% 30.09 in 10.0 mi NNW 8.1 mph - N/A   Overcast
7:15 PM 50.0 °F 42.8 °F 76% 30.10 in 10.0 mi North 11.5 mph - N/A   Overcast
7:35 PM 50.0 °F 42.8 °F 76% 30.11 in 10.0 mi NNW 17.3 mph 25.3 mph N/A   Overcast
8:15 PM 50.0 °F 41.0 °F 71% 30.14 in 10.0 mi North 13.8 mph 20.7 mph N/A   Overcast
8:35 PM 50.0 °F 41.0 °F 71% 30.14 in 10.0 mi North 9.2 mph - N/A   Overcast
8:55 PM 50.0 °F 41.0 °F 71% 30.15 in 10.0 mi North 9.2 mph 16.1 mph N/A   Overcast
9:15 PM 50.0 °F 41.0 °F 71% 30.15 in 10.0 mi North 6.9 mph 17.3 mph N/A   Overcast
9:35 PM 50.0 °F 41.0 °F 71% 30.16 in 10.0 mi North 8.1 mph - N/A   Overcast
9:55 PM 50.0 °F 39.2 °F 66% 30.16 in 10.0 mi North 10.4 mph - N/A   Overcast
10:15 PM 50.0 °F 39.2 °F 66% 30.16 in 10.0 mi North 6.9 mph - N/A   Overcast
10:35 PM 50.0 °F 39.2 °F 66% 30.16 in 10.0 mi North 9.2 mph - N/A   Overcast
11:15 PM 48.2 °F 37.4 °F 66% 30.17 in 10.0 mi North 10.4 mph 19.6 mph N/A   Overcast
11:35 PM 48.2 °F 39.2 °F 71% 30.17 in 10.0 mi North 5.8 mph - N/A   Mostly Cloudy
11:55 PM 48.2 °F 37.4 °F 66% 30.17 in 10.0 mi NNE 8.1 mph - N/A   Overcast